Year,Month,Day,Hour,Minute,Value (Times are PST for temperature in C)
2009,01,31,09,28,3.90
2009,01,31,09,29,4.00
2009,01,31,09,30,4.10
2009,01,31,09,31,4.20
2009,01,31,09,32,4.30
2009,01,31,09,33,4.40
2009,01,31,09,34,4.60
2009,01,31,09,35,4.70
2009,01,31,09,36,4.80
2009,01,31,09,37,4.80
2009,01,31,09,38,4.90
2009,01,31,09,39,4.90
2009,01,31,09,40,5.00
2009,01,31,09,41,5.00
2009,01,31,09,42,5.00
2009,01,31,09,43,5.10
2009,01,31,09,44,5.10
2009,01,31,09,45,5.10
2009,01,31,09,46,5.20
2009,01,31,09,47,5.20
2009,01,31,09,48,5.40
2009,01,31,09,49,5.40
2009,01,31,09,50,5.50
2009,01,31,09,51,5.60
2009,01,31,09,52,5.60
2009,01,31,09,53,5.70
2009,01,31,09,54,5.80
2009,01,31,09,55,5.80
2009,01,31,09,56,5.80
2009,01,31,09,57,5.90
2009,01,31,09,58,5.90
2009,01,31,09,59,6.00
2009,01,31,10,00,6.10
2009,01,31,10,01,6.20
2009,01,31,10,02,6.30
2009,01,31,10,03,6.30
2009,01,31,10,04,6.40
2009,01,31,10,05,6.40
2009,01,31,10,06,6.50
2009,01,31,10,07,6.60
2009,01,31,10,08,6.60
2009,01,31,10,09,6.70
2009,01,31,10,10,6.70
2009,01,31,10,11,6.80
2009,01,31,10,12,6.80
2009,01,31,10,13,6.80
2009,01,31,10,14,6.90
2009,01,31,10,15,6.90
2009,01,31,10,16,7.00
2009,01,31,10,17,7.00
2009,01,31,10,18,7.10
2009,01,31,10,19,7.10
2009,01,31,10,20,7.20
2009,01,31,10,21,7.20
2009,01,31,10,22,7.20
2009,01,31,10,23,7.20
2009,01,31,10,24,7.20
2009,01,31,10,25,7.20
2009,01,31,10,26,7.20
2009,01,31,10,27,7.20
2009,01,31,10,28,7.20
2009,01,31,10,29,7.20
2009,01,31,10,30,7.20
2009,01,31,10,31,7.20
2009,01,31,10,32,7.20
2009,01,31,10,33,7.20
2009,01,31,10,34,7.20
2009,01,31,10,35,7.20
2009,01,31,10,36,7.20
2009,01,31,10,37,7.20
2009,01,31,10,38,7.20
2009,01,31,10,39,7.20
2009,01,31,10,40,7.20
2009,01,31,10,41,7.20
2009,01,31,10,42,7.20
2009,01,31,10,43,7.20
2009,01,31,10,44,7.20
2009,01,31,10,45,7.20
2009,01,31,10,46,7.20
2009,01,31,10,47,7.20
2009,01,31,10,48,7.20
2009,01,31,10,49,7.20
2009,01,31,10,50,7.20
2009,01,31,10,51,7.20
2009,01,31,10,52,7.20
2009,01,31,10,53,7.20
2009,01,31,10,54,7.20
2009,01,31,10,55,7.20
2009,01,31,10,56,7.20
2009,01,31,10,57,7.20
2009,01,31,10,58,7.20
2009,01,31,10,59,7.30
2009,01,31,11,00,7.30
2009,01,31,11,01,7.30
2009,01,31,11,02,7.30
2009,01,31,11,03,7.30
2009,01,31,11,04,7.30
2009,01,31,11,05,7.30
2009,01,31,11,06,7.30
2009,01,31,11,07,7.30
2009,01,31,11,08,7.30
2009,01,31,11,09,7.40
2009,01,31,11,10,7.40
2009,01,31,11,11,7.40
2009,01,31,11,12,7.40
2009,01,31,11,13,7.30
2009,01,31,11,14,7.30
2009,01,31,11,15,7.30
2009,01,31,11,16,7.40
2009,01,31,11,17,7.40
2009,01,31,11,18,7.40
2009,01,31,11,19,7.50
2009,01,31,11,20,7.50
2009,01,31,11,21,7.60
2009,01,31,11,22,7.60
2009,01,31,11,23,7.50
2009,01,31,11,24,7.50
2009,01,31,11,25,7.40
2009,01,31,11,26,7.40
2009,01,31,11,27,7.30
2009,01,31,11,28,7.20
2009,01,31,11,29,7.20
2009,01,31,11,30,7.20
2009,01,31,11,31,7.20
2009,01,31,11,32,7.30
2009,01,31,11,33,7.30
2009,01,31,11,34,7.30
2009,01,31,11,35,7.30
2009,01,31,11,36,7.30
2009,01,31,11,37,7.30
2009,01,31,11,38,7.30
2009,01,31,11,39,7.30
2009,01,31,11,40,7.30
2009,01,31,11,41,7.30
2009,01,31,11,42,7.30
2009,01,31,11,43,7.30
2009,01,31,11,44,7.30
2009,01,31,11,45,7.40
2009,01,31,11,46,7.40
2009,01,31,11,47,7.40
2009,01,31,11,48,7.30
2009,01,31,11,49,7.30
2009,01,31,11,50,7.20
2009,01,31,11,51,7.20
2009,01,31,11,52,7.20
2009,01,31,11,53,7.20
2009,01,31,11,54,7.20
2009,01,31,11,55,7.20
2009,01,31,11,56,7.20
2009,01,31,11,57,7.10
2009,01,31,11,58,7.00
2009,01,31,11,59,7.00
2009,01,31,12,00,7.00
2009,01,31,12,01,6.90
2009,01,31,12,02,6.90
2009,01,31,12,03,6.80
2009,01,31,12,04,6.80
2009,01,31,12,05,6.80
2009,01,31,12,06,6.70
2009,01,31,12,07,6.70
2009,01,31,12,08,6.70
2009,01,31,12,09,6.70
2009,01,31,12,10,6.60
2009,01,31,12,11,6.60
2009,01,31,12,12,6.60
2009,01,31,12,13,6.50
2009,01,31,12,14,6.50
2009,01,31,12,15,6.40
2009,01,31,12,16,6.40
2009,01,31,12,17,6.40
2009,01,31,12,18,6.30
2009,01,31,12,19,6.30
2009,01,31,12,20,6.30
2009,01,31,12,21,6.40
2009,01,31,12,22,6.40
2009,01,31,12,23,6.40
2009,01,31,12,24,6.40
2009,01,31,12,25,6.40
2009,01,31,12,26,6.40
2009,01,31,12,27,6.30
2009,01,31,12,28,6.30
2009,01,31,12,29,6.30
2009,01,31,12,30,6.30
2009,01,31,12,31,6.30
2009,01,31,12,32,6.30
2009,01,31,12,33,6.30
2009,01,31,12,34,6.40
2009,01,31,12,35,6.40
2009,01,31,12,36,6.40
2009,01,31,12,37,6.40
2009,01,31,12,38,6.40
2009,01,31,12,39,6.30
2009,01,31,12,40,6.30
2009,01,31,12,41,6.30
2009,01,31,12,42,6.30
2009,01,31,12,43,6.30
2009,01,31,12,44,6.30
2009,01,31,12,45,6.30
2009,01,31,12,46,6.30
2009,01,31,12,47,6.30
2009,01,31,12,48,6.30
2009,01,31,12,49,6.30
2009,01,31,12,50,6.40
2009,01,31,12,51,6.40
2009,01,31,12,52,6.40
2009,01,31,12,53,6.30
2009,01,31,12,54,6.40
2009,01,31,12,55,6.40
2009,01,31,12,56,6.40
2009,01,31,12,57,6.40
2009,01,31,12,58,6.30
2009,01,31,12,59,6.30
2009,01,31,13,00,6.30
2009,01,31,13,01,6.30
2009,01,31,13,02,6.30
2009,01,31,13,03,6.30
2009,01,31,13,04,6.30
2009,01,31,13,05,6.20
2009,01,31,13,06,6.20
2009,01,31,13,07,6.20
2009,01,31,13,08,6.20
2009,01,31,13,09,6.20
2009,01,31,13,10,6.10
2009,01,31,13,11,6.10
2009,01,31,13,12,6.20
2009,01,31,13,13,6.20
2009,01,31,13,14,6.20
2009,01,31,13,15,6.20
2009,01,31,13,16,6.10
2009,01,31,13,17,6.20
2009,01,31,13,18,6.10
2009,01,31,13,19,6.10
2009,01,31,13,20,6.10
2009,01,31,13,21,6.20
2009,01,31,13,22,6.20
2009,01,31,13,23,6.20
2009,01,31,13,24,6.10
2009,01,31,13,25,6.10
2009,01,31,13,26,6.10
2009,01,31,13,27,6.10
2009,01,31,13,28,6.10
2009,01,31,13,29,6.20
2009,01,31,13,30,6.10
2009,01,31,13,31,6.10
2009,01,31,13,32,6.10
2009,01,31,13,33,6.20
2009,01,31,13,34,6.20
2009,01,31,13,35,6.20
2009,01,31,13,36,6.20
2009,01,31,13,37,6.20
2009,01,31,13,38,6.20
2009,01,31,13,39,6.20
2009,01,31,13,40,6.20
2009,01,31,13,41,6.20
2009,01,31,13,42,6.20
2009,01,31,13,43,6.30
2009,01,31,13,44,6.30
2009,01,31,13,45,6.30
2009,01,31,13,46,6.30
2009,01,31,13,47,6.30
2009,01,31,13,48,6.30
2009,01,31,13,49,6.30
2009,01,31,13,50,6.30
2009,01,31,13,51,6.30
2009,01,31,13,52,6.30
2009,01,31,13,53,6.20
2009,01,31,13,54,6.20
2009,01,31,13,55,6.20
2009,01,31,13,56,6.10
2009,01,31,13,57,6.10
2009,01,31,13,58,6.10
2009,01,31,13,59,6.10
2009,01,31,14,00,6.20
2009,01,31,14,01,6.20
2009,01,31,14,02,6.20
2009,01,31,14,03,6.20
2009,01,31,14,04,6.20
2009,01,31,14,05,6.20
2009,01,31,14,06,6.20
2009,01,31,14,07,6.20
2009,01,31,14,08,6.20
2009,01,31,14,09,6.10
2009,01,31,14,10,6.10
2009,01,31,14,11,6.10
2009,01,31,14,12,6.10
2009,01,31,14,13,6.10
2009,01,31,14,14,6.10
2009,01,31,14,15,6.10
2009,01,31,14,16,6.00
2009,01,31,14,17,6.00
2009,01,31,14,18,6.00
2009,01,31,14,19,6.00
2009,01,31,14,20,6.00
2009,01,31,14,21,6.00
2009,01,31,14,22,6.10
2009,01,31,14,23,6.10
2009,01,31,14,24,6.10
2009,01,31,14,25,6.10
2009,01,31,14,26,6.20
2009,01,31,14,27,6.20
2009,01,31,14,28,6.20
2009,01,31,14,29,6.20
2009,01,31,14,30,6.20
2009,01,31,14,31,6.20
2009,01,31,14,32,6.20
2009,01,31,14,33,6.20
2009,01,31,14,34,6.20
2009,01,31,14,35,6.20
2009,01,31,14,36,6.20
2009,01,31,14,37,6.20
2009,01,31,14,38,6.30
2009,01,31,14,39,6.30
2009,01,31,14,40,6.30
2009,01,31,14,41,6.30
2009,01,31,14,42,6.30
2009,01,31,14,43,6.30
2009,01,31,14,44,6.30
2009,01,31,14,45,6.30
2009,01,31,14,46,6.30
2009,01,31,14,47,6.30
2009,01,31,14,48,6.30
2009,01,31,14,49,6.40
2009,01,31,14,50,6.40
2009,01,31,14,51,6.40
2009,01,31,14,52,6.40
2009,01,31,14,53,6.50
2009,01,31,14,54,6.50
2009,01,31,14,55,6.60
2009,01,31,14,56,6.60
2009,01,31,14,57,6.60
2009,01,31,14,58,6.60
2009,01,31,14,59,6.50
2009,01,31,15,00,6.50
2009,01,31,15,01,6.50
2009,01,31,15,02,6.50
2009,01,31,15,03,6.50
2009,01,31,15,04,6.40
2009,01,31,15,05,6.40
2009,01,31,15,06,6.40
2009,01,31,15,07,6.40
2009,01,31,15,08,6.40
2009,01,31,15,09,6.40
2009,01,31,15,10,6.40
2009,01,31,15,11,6.30
2009,01,31,15,12,6.30
2009,01,31,15,13,6.30
2009,01,31,15,14,6.30
2009,01,31,15,15,6.30
2009,01,31,15,16,6.30
2009,01,31,15,17,6.20
2009,01,31,15,18,6.20
2009,01,31,15,19,6.20
2009,01,31,15,20,6.20
2009,01,31,15,21,6.20
2009,01,31,15,22,6.20
2009,01,31,15,23,6.20
2009,01,31,15,24,6.20
2009,01,31,15,25,6.20
2009,01,31,15,26,6.20
2009,01,31,15,27,6.10
2009,01,31,15,28,6.10
2009,01,31,15,29,6.10
2009,01,31,15,30,6.10
2009,01,31,15,31,6.00
2009,01,31,15,32,6.00
2009,01,31,15,33,5.90
2009,01,31,15,34,5.90
2009,01,31,15,35,5.90
2009,01,31,15,36,5.90
2009,01,31,15,37,5.90
2009,01,31,15,38,5.90
2009,01,31,15,39,5.80
2009,01,31,15,40,5.80
2009,01,31,15,41,5.80
2009,01,31,15,42,5.80
2009,01,31,15,43,5.80
2009,01,31,15,44,5.80
2009,01,31,15,45,5.80
2009,01,31,15,46,5.80
2009,01,31,15,47,5.80
2009,01,31,15,48,5.80
2009,01,31,15,49,5.80
2009,01,31,15,50,5.80
2009,01,31,15,51,5.80
2009,01,31,15,52,5.80
2009,01,31,15,53,5.80
2009,01,31,15,54,5.80
2009,01,31,15,55,5.80
2009,01,31,15,56,5.80
2009,01,31,15,57,5.80
2009,01,31,15,58,5.80
2009,01,31,15,59,5.80
2009,01,31,16,00,5.80
2009,01,31,16,01,5.80
2009,01,31,16,02,5.80
2009,01,31,16,03,5.80
2009,01,31,16,04,5.70
2009,01,31,16,05,5.70
2009,01,31,16,06,5.70
2009,01,31,16,07,5.70
2009,01,31,16,08,5.70
2009,01,31,16,09,5.70
2009,01,31,16,10,5.70
2009,01,31,16,11,5.60
2009,01,31,16,12,5.60
2009,01,31,16,13,5.60
2009,01,31,16,14,5.60
2009,01,31,16,15,5.60
2009,01,31,16,16,5.60
2009,01,31,16,17,5.60
2009,01,31,16,18,5.60
2009,01,31,16,19,5.60
2009,01,31,16,20,5.60
2009,01,31,16,21,5.60
2009,01,31,16,22,5.60
2009,01,31,16,23,5.60
2009,01,31,16,24,5.60
2009,01,31,16,25,5.60
2009,01,31,16,26,5.50
2009,01,31,16,27,5.50
2009,01,31,16,28,5.50
2009,01,31,16,29,5.50
2009,01,31,16,30,5.50
2009,01,31,16,31,5.50
2009,01,31,16,32,5.50
2009,01,31,16,33,5.50
2009,01,31,16,34,5.50
2009,01,31,16,35,5.50
2009,01,31,16,36,5.40
2009,01,31,16,37,5.40
2009,01,31,16,38,5.40
2009,01,31,16,39,5.40
2009,01,31,16,40,5.40
2009,01,31,16,41,5.40
2009,01,31,16,42,5.40
2009,01,31,16,43,5.40
2009,01,31,16,44,5.40
2009,01,31,16,45,5.40
2009,01,31,16,46,5.40
2009,01,31,16,47,5.40
2009,01,31,16,48,5.40
2009,01,31,16,49,5.30
2009,01,31,16,50,5.30
2009,01,31,16,51,5.30
2009,01,31,16,52,5.30
2009,01,31,16,53,5.30
2009,01,31,16,54,5.30
2009,01,31,16,55,5.30
2009,01,31,16,56,5.30
2009,01,31,16,57,5.30
2009,01,31,16,58,5.30
2009,01,31,16,59,5.30
2009,01,31,17,00,5.30
